Location: Newark
(35.5300°N, 14.3000°E)
Time: 12:45:02
(UTC+00:00)

Transit 4A - Pass Details

Date: 01 December 2019
Orbit: 871 x 973 km, 66.8° (Epoch: 17 January)

Event Time Altitude Azimuth Distance (km) Brightness Sun altitude
Rises 16:57:08 0° 185° (S) 3,631 11.3 -13.5°
Reaches altitude 10° 16:59:50 10° 178° (S) 2,678 10.5 -14.0°
Maximum altitude 17:05:38 41° 110° (ESE) 1,335 8.4 -15.2°
Enters shadow 17:09:13 21° 53° (NE) 1,958 9.0 -15.9°
